• In Deutschland
  • Länderverzeichnis
  • Für 7 Tage
  • Wassertemperatur
  • Satellitenkarten
  • Wetterkarte
  • Widgets
  • user-avatar
    Anmelden

    Stündliche Wetter Galata

    Heute, 21 September, Donnerstag

    Zeit Temperatur Niederschläge Wind Luftdruck Luftfeuchtigkeit
    00:00 +21°C° 0 mm 5 m/S 748 mmHg 83%
    01:00 +21°C° 0 mm 5 m/S 749 mmHg 85%
    02:00 +20°C° 0 mm 7 m/S 749 mmHg 67%
    03:00 +18°C° 0 mm 7 m/S 749 mmHg 65%
    04:00 +18°C° 0 mm 7 m/S 750 mmHg 64%
    05:00 +17°C° 0 mm 7 m/S 750 mmHg 62%
    06:00 +17°C° 0 mm 7 m/S 750 mmHg 60%
    07:00 +17°C° 0 mm 7 m/S 750 mmHg 58%
    08:00 +17°C° 0 mm 7 m/S 751 mmHg 56%
    09:00 +18°C° 0,1 mm 7 m/S 751 mmHg 53%
    10:00 +20°C° 0,1 mm 7 m/S 751 mmHg 49%
    11:00 +21°C° 0,1 mm 6 m/S 751 mmHg 46%
    12:00 +22°C° 0 mm 6 m/S 751 mmHg 42%
    13:00 +25°C° 0 mm 5 m/S 751 mmHg 38%
    14:00 +23°C° 0 mm 5 m/S 751 mmHg 37%
    15:00 +23°C° 0 mm 5 m/S 751 mmHg 38%
    16:00 +23°C° 0 mm 4 m/S 751 mmHg 38%
    17:00 +23°C° 0 mm 4 m/S 751 mmHg 38%
    18:00 +21°C° 0 mm 5 m/S 752 mmHg 42%
    19:00 +19°C° 0 mm 5 m/S 752 mmHg 46%
    20:00 +17°C° 0 mm 5 m/S 752 mmHg 50%
    21:00 +16°C° 0 mm 6 m/S 753 mmHg 53%
    22:00 +16°C° 0 mm 7 m/S 753 mmHg 55%
    23:00 +15°C° 0 mm 8 m/S 753 mmHg 58%

    Morgen, 22 September, Freitag

    Zeit Temperatur Niederschläge Wind Luftdruck Luftfeuchtigkeit
    00:00 +15°C° 0 mm 8 m/S 753 mmHg 60%
    01:00 +13°C° 0 mm 8 m/S 753 mmHg 62%
    02:00 +13°C° 0 mm 8 m/S 753 mmHg 65%
    03:00 +12°C° 0 mm 8 m/S 754 mmHg 66%
    04:00 +12°C° 0 mm 8 m/S 754 mmHg 67%
    05:00 +12°C° 0 mm 8 m/S 754 mmHg 68%
    06:00 +12°C° 0 mm 8 m/S 754 mmHg 65%
    07:00 +13°C° 0 mm 8 m/S 754 mmHg 62%
    08:00 +15°C° 0 mm 9 m/S 754 mmHg 58%
    09:00 +16°C° 0 mm 8 m/S 754 mmHg 53%
    10:00 +18°C° 0 mm 8 m/S 754 mmHg 47%
    11:00 +21°C° 0 mm 7 m/S 754 mmHg 41%
    12:00 +21°C° 0 mm 7 m/S 754 mmHg 40%
    13:00 +21°C° 0 mm 7 m/S 754 mmHg 39%
    14:00 +22°C° 0 mm 7 m/S 754 mmHg 37%
    15:00 +21°C° 0 mm 7 m/S 754 mmHg 40%
    16:00 +20°C° 0 mm 7 m/S 754 mmHg 43%
    17:00 +20°C° 0 mm 7 m/S 754 mmHg 45%
    18:00 +18°C° 0 mm 7 m/S 755 mmHg 50%
    19:00 +17°C° 0 mm 7 m/S 755 mmHg 54%
    20:00 +16°C° 0 mm 7 m/S 755 mmHg 59%
    21:00 +15°C° 0 mm 7 m/S 756 mmHg 61%
    22:00 +15°C° 0 mm 7 m/S 756 mmHg 62%
    23:00 +14°C° 0 mm 7 m/S 756 mmHg 64%

    übermorgen, 23 September, Samstag

    Zeit Temperatur Niederschläge Wind Luftdruck Luftfeuchtigkeit
    00:00 +14°C° 0 mm 7 m/S 756 mmHg 67%
    01:00 +13°C° 0 mm 6 m/S 756 mmHg 69%
    02:00 +13°C° 0 mm 6 m/S 757 mmHg 71%
    03:00 +11°C° 0 mm 6 m/S 757 mmHg 73%
    04:00 +11°C° 0 mm 6 m/S 757 mmHg 75%
    05:00 +12°C° 0 mm 5 m/S 757 mmHg 77%
    06:00 +13°C° 0 mm 5 m/S 757 mmHg 73%
    07:00 +14°C° 0 mm 6 m/S 757 mmHg 69%
    08:00 +15°C° 0 mm 6 m/S 757 mmHg 64%
    09:00 +17°C° 0 mm 5 m/S 758 mmHg 57%
    10:00 +20°C° 0 mm 5 m/S 758 mmHg 50%
    11:00 +22°C° 0 mm 4 m/S 758 mmHg 42%
    12:00 +22°C° 0,1 mm 4 m/S 757 mmHg 42%
    13:00 +22°C° 0,1 mm 4 m/S 757 mmHg 42%
    14:00 +22°C° 0,1 mm 4 m/S 757 mmHg 41%
    15:00 +22°C° 0,1 mm 4 m/S 757 mmHg 42%
    16:00 +21°C° 0,1 mm 4 m/S 757 mmHg 43%
    17:00 +21°C° 0,1 mm 4 m/S 757 mmHg 44%
    18:00 +20°C° 0 mm 3 m/S 757 mmHg 49%
    19:00 +18°C° 0 mm 3 m/S 758 mmHg 53%
    20:00 +17°C° 0 mm 2 m/S 758 mmHg 58%
    21:00 +16°C° 0 mm 3 m/S 758 mmHg 58%
    22:00 +16°C° 0 mm 3 m/S 758 mmHg 59%
    23:00 +16°C° 0 mm 3 m/S 758 mmHg 60%

    24 September, Sonntag

    Zeit Temperatur Niederschläge Wind Luftdruck Luftfeuchtigkeit
    00:00 +14°C° 0 mm 3 m/S 758 mmHg 60%
    01:00 +14°C° 0 mm 3 m/S 758 mmHg 60%
    02:00 +14°C° 0 mm 3 m/S 758 mmHg 60%
    03:00 +13°C° 0 mm 3 m/S 758 mmHg 60%
    04:00 +14°C° 0 mm 2 m/S 758 mmHg 60%
    05:00 +14°C° 0 mm 2 m/S 758 mmHg 60%
    06:00 +15°C° 0 mm 2 m/S 758 mmHg 55%
    07:00 +17°C° 0 mm 2 m/S 759 mmHg 50%
    08:00 +20°C° 0 mm 1 m/S 759 mmHg 44%
    09:00 +20°C° 0 mm 2 m/S 759 mmHg 40%
    10:00 +23°C° 0 mm 2 m/S 759 mmHg 35%
    11:00 +25°C° 0 mm 2 m/S 759 mmHg 31%
    12:00 +26°C° 0 mm 2 m/S 759 mmHg 30%
    13:00 +26°C° 0 mm 3 m/S 759 mmHg 29%
    14:00 +27°C° 0 mm 3 m/S 759 mmHg 28%
    15:00 +26°C° 0 mm 4 m/S 758 mmHg 33%
    16:00 +25°C° 0 mm 4 m/S 758 mmHg 38%
    17:00 +23°C° 0 mm 4 m/S 758 mmHg 43%
    18:00 +22°C° 0 mm 4 m/S 759 mmHg 52%
    19:00 +20°C° 0 mm 4 m/S 759 mmHg 62%
    20:00 +18°C° 0 mm 3 m/S 759 mmHg 71%
    21:00 +18°C° 0 mm 3 m/S 759 mmHg 73%
    22:00 +18°C° 0 mm 3 m/S 759 mmHg 74%
    23:00 +17°C° 0 mm 2 m/S 759 mmHg 76%

    25 September, Montag

    Zeit Temperatur Niederschläge Wind Luftdruck Luftfeuchtigkeit
    00:00 +17°C° 0 mm 2 m/S 759 mmHg 76%
    01:00 +17°C° 0 mm 2 m/S 759 mmHg 77%
    02:00 +17°C° 0 mm 2 m/S 759 mmHg 77%
    03:00 +16°C° 0 mm 2 m/S 758 mmHg 77%
    04:00 +16°C° 0 mm 3 m/S 758 mmHg 77%
    05:00 +16°C° 0 mm 3 m/S 758 mmHg 78%
    06:00 +17°C° 0 mm 4 m/S 758 mmHg 71%
    07:00 +19°C° 0 mm 4 m/S 759 mmHg 65%
    08:00 +20°C° 0 mm 5 m/S 759 mmHg 59%
    09:00 +21°C° 0 mm 5 m/S 759 mmHg 54%
    10:00 +23°C° 0 mm 5 m/S 759 mmHg 49%
    11:00 +24°C° 0 mm 6 m/S 759 mmHg 43%
    12:00 +26°C° 0 mm 6 m/S 758 mmHg 43%
    13:00 +26°C° 0 mm 6 m/S 758 mmHg 42%
    14:00 +26°C° 0 mm 6 m/S 758 mmHg 41%
    15:00 +26°C° 0 mm 6 m/S 758 mmHg 45%
    16:00 +24°C° 0 mm 6 m/S 758 mmHg 48%
    17:00 +23°C° 0 mm 6 m/S 758 mmHg 51%
    18:00 +22°C° 0 mm 5 m/S 758 mmHg 59%
    19:00 +21°C° 0 mm 5 m/S 758 mmHg 67%
    20:00 +19°C° 0 mm 5 m/S 758 mmHg 74%
    21:00 +19°C° 0 mm 4 m/S 757 mmHg 77%
    22:00 +18°C° 0 mm 4 m/S 757 mmHg 80%
    23:00 +18°C° 0 mm 4 m/S 757 mmHg 83%

    26 September, Dienstag

    Zeit Temperatur Niederschläge Wind Luftdruck Luftfeuchtigkeit
    00:00 +17°C° 0 mm 4 m/S 757 mmHg 83%
    01:00 +17°C° 0 mm 4 m/S 757 mmHg 84%
    02:00 +15°C° 0 mm 5 m/S 756 mmHg 85%
    03:00 +15°C° 0 mm 5 m/S 756 mmHg 85%
    04:00 +15°C° 0 mm 5 m/S 756 mmHg 86%
    05:00 +14°C° 0 mm 5 m/S 756 mmHg 87%
    06:00 +15°C° 0 mm 5 m/S 756 mmHg 80%
    07:00 +16°C° 0 mm 5 m/S 756 mmHg 74%
    08:00 +19°C° 0 mm 6 m/S 756 mmHg 67%
    09:00 +21°C° 0 mm 6 m/S 756 mmHg 62%
    10:00 +23°C° 0 mm 6 m/S 756 mmHg 56%
    11:00 +26°C° 0 mm 6 m/S 756 mmHg 50%
    12:00 +26°C° 0,1 mm 6 m/S 756 mmHg 52%
    13:00 +24°C° 0,1 mm 6 m/S 756 mmHg 53%
    14:00 +24°C° 0,1 mm 7 m/S 756 mmHg 55%
    15:00 +23°C° 0,1 mm 7 m/S 756 mmHg 57%
    16:00 +22°C° 0,1 mm 7 m/S 756 mmHg 60%
    17:00 +22°C° 0,1 mm 7 m/S 756 mmHg 62%
    18:00 +20°C° 0 mm 7 m/S 757 mmHg 65%
    19:00 +18°C° 0 mm 7 m/S 757 mmHg 68%
    20:00 +17°C° 0 mm 6 m/S 757 mmHg 71%
    21:00 +16°C° 0 mm 6 m/S 757 mmHg 69%
    22:00 +16°C° 0 mm 6 m/S 757 mmHg 67%
    23:00 +15°C° 0 mm 6 m/S 757 mmHg 65%
    Mehr zeigen